THORAD AGENA D DEB, 4991

Orbit data source: Space-Track

THORAD AGENA D DEB, 4991 is space debris in SSO originally from a launch on Wed, 08 Apr 1970 UTC launched from the Air Force Western Test Range (AFWTR). Debris objects in space refer to the collection of defunct objects orbiting the Earth. Examples of debris include non-operational satellites, rocket bodies, and fragments generated from explosions, collisions, or faulty payload assembly.

Loading next visibility...
Identifier
4991, 1970-025HM
Orbit
SSO
Country
Flag of USUS
Related business
Manufacturer
Unknown
Mission
Spacecraft
Bus & Motor
Unknown
Mass
Unknown
Launch date (UTC)
1970-04-08 (56 years ago)
Launch vehicle
Unknown
Launch site
Air Force Western Test Range (AFWTR)
Object type
Payload
Rocket body
Debris
Shape & HBR
Unknown shape, 0.1 m
Radar Cross Section
Medium (>0.1 m² and <1 m²)

Expand to show TLE details & history
Last TLE update: 8 hours ago

TLE from 8 hours ago
0 THORAD AGENA D DEB
1 04991U 70025HM  26208.47180909 -.00000020  00000-0  40947-4 0  9994
2 04991 100.2312  39.6511 0020413 348.0462  41.7152 13.53508145779947
Epoch: 2026-07-27T11:19Z
TLE epoch observation values (Epoch: 2026-07-27T11:19:24.305Z)
Latitude
29.44326°
Longitude
-81.17232°
Altitude
1,051.599 km
Speed
7.334 km/s
True Right ascension
02h 15m 20s
True Declination
29° 18' 08"
Sunlit
Object was in daylight at epoch
Visualization orbit readout
Latitude
Unknown
Longitude
Unknown
Altitude
Unknown
Speed
Unknown
Apparent Right ascension
Unknown
Apparent Declination
Unknown
Sunlit
N/A
Visualization observer readout
Local Sidereal Time
08:33:57
Azimuth
Unknown
Elevation
Unknown
Doppler factor
Unknown
Orbital elements
Apogee altitude
1,071.881 km
Perigee altitude
1,041.527 km
Semi-major axis
7,434.841 km
Eccentricity
0.00204
Inclination
100.2312°
RAAN
39.6511°
Arg. of periapsis
348.0462°
True anomaly
41.87115°
Mean anomaly
41.7152°
Eccentric anomaly
41.79315°
Mean motion
3.3856 °/min
Orbital period
106.33 mins
BSTAR
0.000040947
Loading maneuver chart data...
Computing Atmospheric mass density...

Documentation

Showing up to 5 results
|